Time,TemperatureF,DewpointF,PressureIn,WindDirection,WindDirectionDegrees,WindSpeedMPH,WindSpeedGustMPH,Humidity,HourlyPrecipIn,Conditions,Clouds,dailyrainin,SoftwareType,DateUTC
2013-01-23 00:04:00,16.6,4.0,30.42,NW,308,3.0,5.0,57,0.00,,,0.00,Wunderground v.1.15,2013-01-23 05:04:00,
2013-01-23 00:06:00,16.6,4.0,30.42,WNW,300,3.0,5.0,57,0.00,,,0.00,Wunderground v.1.15,2013-01-23 05:06:00,
2013-01-23 00:12:00,16.6,4.0,30.42,WNW,293,3.0,4.0,57,0.00,,,0.00,Wunderground v.1.15,2013-01-23 05:12:00,
2013-01-23 00:17:00,16.6,3.6,30.43,WNW,296,4.0,6.0,56,0.00,,,0.00,Wunderground v.1.15,2013-01-23 05:17:00,
2013-01-23 00:23:00,16.6,3.2,30.43,WNW,300,5.0,7.0,55,0.00,,,0.00,Wunderground v.1.15,2013-01-23 05:23:00,
2013-01-23 00:29:00,16.6,4.0,30.42,WNW,287,4.0,7.0,57,0.00,,,0.00,Wunderground v.1.15,2013-01-23 05:29:00,
2013-01-23 00:34:00,16.5,3.5,30.43,WNW,287,4.0,6.0,56,0.00,,,0.00,Wunderground v.1.15,2013-01-23 05:34:00,
2013-01-23 00:40:00,16.5,3.9,30.43,West,280,4.0,4.0,57,0.00,,,0.00,Wunderground v.1.15,2013-01-23 05:40:00,
2013-01-23 00:46:00,16.4,4.2,30.42,West,279,3.0,6.0,58,0.00,,,0.00,Wunderground v.1.15,2013-01-23 05:46:00,
2013-01-23 00:52:00,16.4,4.2,30.42,WSW,250,3.0,4.0,58,0.00,,,0.00,Wunderground v.1.15,2013-01-23 05:52:00,
2013-01-23 00:57:00,16.4,3.8,30.42,WSW,252,3.0,4.0,57,0.00,,,0.00,Wunderground v.1.15,2013-01-23 05:57:00,
2013-01-23 01:03:00,16.3,4.1,30.42,WNW,283,4.0,6.0,58,0.00,,,0.00,Wunderground v.1.15,2013-01-23 06:03:00,
2013-01-23 01:09:00,16.2,3.6,30.42,WSW,256,4.0,6.0,57,0.00,,,0.00,Wunderground v.1.15,2013-01-23 06:09:00,
2013-01-23 01:14:00,15.9,4.1,30.42,West,271,3.0,4.0,59,0.00,,,0.00,Wunderground v.1.15,2013-01-23 06:14:00,
2013-01-23 01:20:00,15.7,3.9,30.42,WNW,297,2.0,2.0,59,0.00,,,0.00,Wunderground v.1.15,2013-01-23 06:20:00,
2013-01-23 01:26:00,15.4,4.0,30.42,WNW,290,2.0,3.0,60,0.00,,,0.00,Wunderground v.1.15,2013-01-23 06:26:00,
2013-01-23 01:32:00,15.2,4.1,30.42,West,281,1.0,1.0,61,0.00,,,0.00,Wunderground v.1.15,2013-01-23 06:32:00,
2013-01-23 01:38:00,14.9,4.2,30.42,WNW,282,1.0,1.0,62,0.00,,,0.00,Wunderground v.1.15,2013-01-23 06:38:00,
2013-01-23 01:43:00,14.7,4.4,30.42,West,277,0.0,1.0,63,0.00,,,0.00,Wunderground v.1.15,2013-01-23 06:43:00,
2013-01-23 01:48:00,14.5,4.5,30.42,West,273,0.0,1.0,64,0.00,,,0.00,Wunderground v.1.15,2013-01-23 06:48:00,
2013-01-23 01:54:00,14.5,4.5,30.42,WSW,255,0.0,1.0,64,0.00,,,0.00,Wunderground v.1.15,2013-01-23 06:54:00,
2013-01-23 01:59:00,14.7,4.7,30.43,WNW,288,1.0,2.0,64,0.00,,,0.00,Wunderground v.1.15,2013-01-23 06:59:00,
2013-01-23 02:04:00,14.9,4.9,30.43,NW,307,1.0,2.0,64,0.00,,,0.00,Wunderground v.1.15,2013-01-23 07:04:00,
2013-01-23 02:10:00,15.2,4.9,30.43,WNW,285,2.0,4.0,63,0.00,,,0.00,Wunderground v.1.15,2013-01-23 07:10:00,
2013-01-23 02:16:00,15.4,4.7,30.43,WNW,293,2.0,4.0,62,0.00,,,0.00,Wunderground v.1.15,2013-01-23 07:16:00,
2013-01-23 02:22:00,15.7,5.0,30.43,West,263,2.0,2.0,62,0.00,,,0.00,Wunderground v.1.15,2013-01-23 07:22:00,
2013-01-23 02:28:00,15.8,4.7,30.43,WNW,284,2.0,3.0,61,0.00,,,0.00,Wunderground v.1.15,2013-01-23 07:28:00,
2013-01-23 02:33:00,15.9,5.2,30.44,WNW,295,2.0,3.0,62,0.00,,,0.00,Wunderground v.1.15,2013-01-23 07:33:00,
2013-01-23 02:40:00,15.7,4.6,30.44,West,263,2.0,2.0,61,0.00,,,0.00,Wunderground v.1.15,2013-01-23 07:40:00,
2013-01-23 02:46:00,15.4,4.7,30.44,West,272,2.0,2.0,62,0.00,,,0.00,Wunderground v.1.15,2013-01-23 07:46:00,
2013-01-23 02:51:00,15.2,4.9,30.44,West,280,2.0,2.0,63,0.00,,,0.00,Wunderground v.1.15,2013-01-23 07:51:00,
2013-01-23 02:57:00,14.9,4.6,30.44,West,274,1.0,2.0,63,0.00,,,0.00,Wunderground v.1.15,2013-01-23 07:57:00,
2013-01-23 03:03:00,14.6,5.0,30.43,West,259,0.0,1.0,65,0.00,,,0.00,Wunderground v.1.15,2013-01-23 08:03:00,
2013-01-23 03:09:00,14.3,5.0,30.43,West,259,0.0,1.0,66,0.00,,,0.00,Wunderground v.1.15,2013-01-23 08:09:00,
2013-01-23 03:14:00,13.9,4.6,30.43,WSW,249,0.0,0.0,66,0.00,,,0.00,Wunderground v.1.15,2013-01-23 08:14:00,
2013-01-23 03:23:00,13.6,4.7,30.43,WSW,243,0.0,0.0,67,0.00,,,0.00,Wunderground v.1.15,2013-01-23 08:23:00,
2013-01-23 03:29:00,13.4,4.8,30.43,WSW,243,0.0,0.0,68,0.00,,,0.00,Wunderground v.1.15,2013-01-23 08:29:00,
2013-01-23 03:34:00,13.2,4.9,30.43,WSW,243,0.0,0.0,69,0.00,,,0.00,Wunderground v.1.15,2013-01-23 08:34:00,
2013-01-23 03:39:00,12.9,5.3,30.42,WSW,243,0.0,0.0,71,0.00,,,0.00,Wunderground v.1.15,2013-01-23 08:39:00,
2013-01-23 03:45:00,12.7,4.8,30.42,WSW,243,0.0,0.0,70,0.00,,,0.00,Wunderground v.1.15,2013-01-23 08:45:00,
2013-01-23 03:51:00,12.5,5.2,30.43,WSW,243,0.0,0.0,72,0.00,,,0.00,Wunderground v.1.15,2013-01-23 08:51:00,
2013-01-23 03:56:00,12.4,5.4,30.43,WSW,243,0.0,0.0,73,0.00,,,0.00,Wunderground v.1.15,2013-01-23 08:56:00,
2013-01-23 04:02:00,12.4,5.4,30.43,WSW,245,0.0,0.0,73,0.00,,,0.00,Wunderground v.1.15,2013-01-23 09:02:00,
2013-01-23 04:08:00,12.5,5.2,30.43,WSW,248,0.0,1.0,72,0.00,,,0.00,Wunderground v.1.15,2013-01-23 09:08:00,
2013-01-23 04:14:00,12.6,5.0,30.42,SW,228,0.0,1.0,71,0.00,,,0.00,Wunderground v.1.15,2013-01-23 09:14:00,
2013-01-23 04:19:00,12.8,4.9,30.42,West,262,0.0,2.0,70,0.00,,,0.00,Wunderground v.1.15,2013-01-23 09:19:00,
2013-01-23 04:24:00,13.0,4.7,30.43,West,262,0.0,1.0,69,0.00,,,0.00,Wunderground v.1.15,2013-01-23 09:24:00,
2013-01-23 04:30:00,13.0,4.7,30.42,West,269,0.0,1.0,69,0.00,,,0.00,Wunderground v.1.15,2013-01-23 09:30:00,
2013-01-23 04:35:00,13.0,5.0,30.42,West,280,0.0,1.0,70,0.00,,,0.00,Wunderground v.1.15,2013-01-23 09:35:00,
2013-01-23 04:41:00,12.8,5.2,30.42,West,280,0.0,0.0,71,0.00,,,0.00,Wunderground v.1.15,2013-01-23 09:41:00,
2013-01-23 04:47:00,12.6,5.3,30.42,West,280,0.0,0.0,72,0.00,,,0.00,Wunderground v.1.15,2013-01-23 09:47:00,
2013-01-23 04:53:00,12.4,5.1,30.42,West,280,0.0,0.0,72,0.00,,,0.00,Wunderground v.1.15,2013-01-23 09:53:00,
2013-01-23 04:59:00,12.5,5.2,30.42,WSW,257,0.0,0.0,72,0.00,,,0.00,Wunderground v.1.15,2013-01-23 09:59:00,
2013-01-23 05:04:00,12.2,5.2,30.42,WSW,257,0.0,0.0,73,0.00,,,0.00,Wunderground v.1.15,2013-01-23 10:04:00,
2013-01-23 05:10:00,12.0,5.6,30.42,WSW,257,0.0,0.0,75,0.00,,,0.00,Wunderground v.1.15,2013-01-23 10:10:00,
2013-01-23 05:16:00,11.8,5.1,30.42,WSW,257,0.0,1.0,74,0.00,,,0.00,Wunderground v.1.15,2013-01-23 10:16:00,
2013-01-23 05:22:00,11.8,5.1,30.42,WSW,251,0.0,0.0,74,0.00,,,0.00,Wunderground v.1.15,2013-01-23 10:22:00,
2013-01-23 05:28:00,11.9,4.9,30.42,WSW,249,0.0,0.0,73,0.00,,,0.00,Wunderground v.1.15,2013-01-23 10:28:00,
2013-01-23 05:34:00,12.1,5.1,30.43,West,264,0.0,0.0,73,0.00,,,0.00,Wunderground v.1.15,2013-01-23 10:34:00,
2013-01-23 05:39:00,12.4,4.8,30.43,WSW,250,0.0,2.0,71,0.00,,,0.00,Wunderground v.1.15,2013-01-23 10:39:00,
2013-01-23 05:45:00,12.6,4.7,30.43,WSW,250,1.0,2.0,70,0.00,,,0.00,Wunderground v.1.15,2013-01-23 10:45:00,
2013-01-23 05:51:00,12.7,5.1,30.43,West,278,0.0,1.0,71,0.00,,,0.00,Wunderground v.1.15,2013-01-23 10:51:00,
2013-01-23 05:56:00,12.7,5.1,30.43,West,277,0.0,1.0,71,0.00,,,0.00,Wunderground v.1.15,2013-01-23 10:56:00,
2013-01-23 06:02:00,12.6,5.0,30.43,West,277,0.0,0.0,71,0.00,,,0.00,Wunderground v.1.15,2013-01-23 11:02:00,
2013-01-23 06:07:00,12.5,5.2,30.43,West,267,0.0,0.0,72,0.00,,,0.00,Wunderground v.1.15,2013-01-23 11:07:00,
2013-01-23 06:13:00,12.4,5.4,30.43,West,267,0.0,0.0,73,0.00,,,0.00,Wunderground v.1.15,2013-01-23 11:13:00,
2013-01-23 06:18:00,12.2,5.2,30.43,West,267,0.0,0.0,73,0.00,,,0.00,Wunderground v.1.15,2013-01-23 11:18:00,
2013-01-23 06:24:00,12.3,5.3,30.43,WSW,243,0.0,0.0,73,0.00,,,0.00,Wunderground v.1.15,2013-01-23 11:24:00,
2013-01-23 06:30:00,12.5,5.5,30.43,WSW,245,0.0,0.0,73,0.00,,,0.00,Wunderground v.1.15,2013-01-23 11:30:00,
2013-01-23 06:35:00,12.8,5.5,30.43,SSW,212,0.0,0.0,72,0.00,,,0.00,Wunderground v.1.15,2013-01-23 11:35:00,
2013-01-23 06:40:00,13.0,6.3,30.43,SSW,195,0.0,0.0,74,0.00,,,0.00,Wunderground v.1.15,2013-01-23 11:40:00,
2013-01-23 06:46:00,13.1,7.0,30.43,SSW,195,0.0,0.0,76,0.00,,,0.00,Wunderground v.1.15,2013-01-23 11:46:00,
2013-01-23 06:51:00,13.1,6.4,30.43,SW,221,0.0,0.0,74,0.00,,,0.00,Wunderground v.1.15,2013-01-23 11:51:00,
2013-01-23 06:57:00,13.3,6.3,30.43,SW,217,0.0,0.0,73,0.00,,,0.00,Wunderground v.1.15,2013-01-23 11:57:00,
2013-01-23 07:03:00,13.5,6.5,30.43,SSW,200,0.0,1.0,73,0.00,,,0.00,Wunderground v.1.15,2013-01-23 12:03:00,
2013-01-23 07:09:00,13.6,5.9,30.43,WSW,240,0.0,1.0,71,0.00,,,0.00,Wunderground v.1.15,2013-01-23 12:09:00,
2013-01-23 07:15:00,13.6,6.2,30.43,WSW,249,0.0,0.0,72,0.00,,,0.00,Wunderground v.1.15,2013-01-23 12:15:00,
2013-01-23 07:21:00,13.5,6.5,30.43,WSW,240,0.0,0.0,73,0.00,,,0.00,Wunderground v.1.15,2013-01-23 12:21:00,
2013-01-23 07:26:00,13.4,6.4,30.43,SW,231,0.0,0.0,73,0.00,,,0.00,Wunderground v.1.15,2013-01-23 12:26:00,
2013-01-23 07:32:00,13.4,6.4,30.43,West,267,0.0,0.0,73,0.00,,,0.00,Wunderground v.1.15,2013-01-23 12:32:00,
2013-01-23 07:38:00,13.3,6.3,30.43,South,187,0.0,1.0,73,0.00,,,0.00,Wunderground v.1.15,2013-01-23 12:38:00,
2013-01-23 07:44:00,13.2,6.8,30.43,South,187,0.0,0.0,75,0.00,,,0.00,Wunderground v.1.15,2013-01-23 12:44:00,
2013-01-23 07:49:00,13.2,7.0,30.43,South,187,0.0,0.0,76,0.00,,,0.00,Wunderground v.1.15,2013-01-23 12:49:00,
2013-01-23 07:55:00,13.2,7.6,30.43,South,187,0.0,0.0,78,0.00,,,0.00,Wunderground v.1.15,2013-01-23 12:55:00,
2013-01-23 08:00:00,13.4,8.4,30.42,SSE,150,0.0,0.0,80,0.00,,,0.00,Wunderground v.1.15,2013-01-23 13:00:00,
2013-01-23 08:06:00,13.5,8.2,30.42,SW,231,0.0,1.0,79,0.00,,,0.00,Wunderground v.1.15,2013-01-23 13:06:00,
2013-01-23 08:12:00,13.7,8.4,30.42,SW,225,0.0,0.0,79,0.00,,,0.00,Wunderground v.1.15,2013-01-23 13:12:00,
2013-01-23 08:18:00,14.0,8.4,30.42,WSW,237,0.0,1.0,78,0.00,,,0.00,Wunderground v.1.15,2013-01-23 13:18:00,
2013-01-23 08:23:00,14.3,8.4,30.43,SW,219,0.0,2.0,77,0.00,,,0.00,Wunderground v.1.15,2013-01-23 13:23:00,
2013-01-23 08:29:00,14.7,8.2,30.43,West,264,1.0,2.0,75,0.00,,,0.00,Wunderground v.1.15,2013-01-23 13:29:00,
2013-01-23 08:35:00,14.9,7.8,30.43,West,276,1.0,1.0,73,0.00,,,0.00,Wunderground v.1.15,2013-01-23 13:35:00,
2013-01-23 08:41:00,15.3,7.9,30.43,WSW,246,1.0,2.0,72,0.00,,,0.00,Wunderground v.1.15,2013-01-23 13:41:00,
2013-01-23 08:46:00,15.6,7.6,30.43,West,259,1.0,4.0,70,0.00,,,0.00,Wunderground v.1.15,2013-01-23 13:46:00,
2013-01-23 08:52:00,16.0,8.3,30.43,SW,222,1.0,1.0,71,0.00,,,0.00,Wunderground v.1.15,2013-01-23 13:52:00,
2013-01-23 08:58:00,16.3,8.5,30.43,WSW,242,1.0,2.0,71,0.00,,,0.00,Wunderground v.1.15,2013-01-23 13:58:00,
2013-01-23 09:03:00,16.5,8.7,30.43,West,259,0.0,2.0,71,0.00,,,0.00,Wunderground v.1.15,2013-01-23 14:03:00,
2013-01-23 09:09:00,16.9,9.1,30.43,SSE,156,0.0,2.0,71,0.00,,,0.00,Wunderground v.1.15,2013-01-23 14:09:00,
2013-01-23 09:15:00,17.1,8.0,30.44,SW,234,1.0,2.0,67,0.00,,,0.00,Wunderground v.1.15,2013-01-23 14:15:00,
2013-01-23 09:21:00,17.1,7.7,30.44,WSW,256,1.0,2.0,66,0.00,,,0.00,Wunderground v.1.15,2013-01-23 14:21:00,
2013-01-23 09:26:00,17.2,7.4,30.44,WNW,287,2.0,3.0,65,0.00,,,0.00,Wunderground v.1.15,2013-01-23 14:26:00,
2013-01-23 09:32:00,17.4,8.3,30.44,WSW,245,1.0,1.0,67,0.00,,,0.00,Wunderground v.1.15,2013-01-23 14:32:00,
2013-01-23 09:38:00,17.7,7.9,30.44,SSW,205,1.0,3.0,65,0.00,,,0.00,Wunderground v.1.15,2013-01-23 14:38:00,
2013-01-23 09:43:00,17.8,8.0,30.44,SW,215,2.0,2.0,65,0.00,,,0.00,Wunderground v.1.15,2013-01-23 14:43:00,
2013-01-23 09:49:00,17.8,7.7,30.43,WSW,239,2.0,3.0,64,0.00,,,0.00,Wunderground v.1.15,2013-01-23 14:49:00,
2013-01-23 09:55:00,18.1,8.0,30.43,SSW,207,2.0,3.0,64,0.00,,,0.00,Wunderground v.1.15,2013-01-23 14:55:00,
2013-01-23 10:00:00,18.3,7.8,30.44,South,175,2.0,2.0,63,0.00,,,0.00,Wunderground v.1.15,2013-01-23 15:00:00,
2013-01-23 10:06:00,18.3,8.5,30.45,West,264,2.0,2.0,65,0.00,,,0.00,Wunderground v.1.15,2013-01-23 15:06:00,
2013-01-23 10:12:00,18.5,9.0,30.44,SSW,201,1.0,2.0,66,0.00,,,0.00,Wunderground v.1.15,2013-01-23 15:12:00,
2013-01-23 10:17:00,18.5,8.7,30.44,SW,233,1.0,2.0,65,0.00,,,0.00,Wunderground v.1.15,2013-01-23 15:17:00,
2013-01-23 10:23:00,18.8,8.3,30.44,SW,217,1.0,6.0,63,0.00,,,0.00,Wunderground v.1.15,2013-01-23 15:23:00,
2013-01-23 10:29:00,18.8,8.3,30.44,WSW,246,2.0,6.0,63,0.00,,,0.00,Wunderground v.1.15,2013-01-23 15:29:00,
2013-01-23 10:35:00,19.0,7.7,30.44,SW,215,2.0,3.0,61,0.00,,,0.00,Wunderground v.1.15,2013-01-23 15:35:00,
2013-01-23 10:40:00,19.0,8.8,30.44,SSW,211,2.0,2.0,64,0.00,,,0.00,Wunderground v.1.15,2013-01-23 15:40:00,
2013-01-23 10:46:00,18.9,9.1,30.43,SSW,210,2.0,4.0,65,0.00,,,0.00,Wunderground v.1.15,2013-01-23 15:46:00,
2013-01-23 10:52:00,19.2,9.7,30.43,SSE,161,2.0,2.0,66,0.00,,,0.00,Wunderground v.1.15,2013-01-23 15:52:00,
2013-01-23 10:57:00,19.3,9.8,30.43,South,179,2.0,3.0,66,0.00,,,0.00,Wunderground v.1.15,2013-01-23 15:57:00,
2013-01-23 11:03:00,19.5,9.3,30.43,SSW,193,2.0,4.0,64,0.00,,,0.00,Wunderground v.1.15,2013-01-23 16:03:00,
2013-01-23 11:09:00,19.5,8.9,30.43,SSW,207,3.0,5.0,63,0.00,,,0.00,Wunderground v.1.15,2013-01-23 16:09:00,
2013-01-23 11:15:00,19.5,8.6,30.43,South,177,3.0,5.0,62,0.00,,,0.00,Wunderground v.1.15,2013-01-23 16:15:00,
2013-01-23 11:20:00,19.6,9.0,30.42,SSE,149,2.0,2.0,63,0.00,,,0.00,Wunderground v.1.15,2013-01-23 16:20:00,
2013-01-23 11:26:00,19.8,8.9,30.42,WSW,248,2.0,4.0,62,0.00,,,0.00,Wunderground v.1.15,2013-01-23 16:26:00,
2013-01-23 11:32:00,20.0,9.1,30.42,SSE,153,2.0,4.0,62,0.00,,,0.00,Wunderground v.1.15,2013-01-23 16:32:00,
2013-01-23 11:37:00,20.2,10.0,30.41,SSW,195,2.0,4.0,64,0.00,,,0.00,Wunderground v.1.15,2013-01-23 16:37:00,
2013-01-23 11:43:00,20.4,10.1,30.41,South,183,3.0,5.0,64,0.00,,,0.00,Wunderground v.1.15,2013-01-23 16:43:00,
2013-01-23 11:49:00,20.6,10.3,30.41,SSW,195,2.0,5.0,64,0.00,,,0.00,Wunderground v.1.15,2013-01-23 16:49:00,
2013-01-23 11:55:00,20.8,10.2,30.40,SE,146,2.0,3.0,63,0.00,,,0.00,Wunderground v.1.15,2013-01-23 16:55:00,
2013-01-23 12:00:00,21.1,10.1,30.40,SSE,161,2.0,4.0,62,0.00,,,0.00,Wunderground v.1.15,2013-01-23 17:00:00,
2013-01-23 12:06:00,21.2,9.8,30.39,SW,224,3.0,7.0,61,0.00,,,0.00,Wunderground v.1.15,2013-01-23 17:06:00,
2013-01-23 12:12:00,21.3,9.6,30.39,South,181,3.0,3.0,60,0.00,,,0.00,Wunderground v.1.15,2013-01-23 17:12:00,
2013-01-23 12:18:00,21.4,9.7,30.38,SSW,193,3.0,5.0,60,0.00,,,0.00,Wunderground v.1.15,2013-01-23 17:18:00,
2013-01-23 12:23:00,21.7,9.6,30.38,SSE,167,3.0,4.0,59,0.00,,,0.00,Wunderground v.1.15,2013-01-23 17:23:00,
2013-01-23 12:29:00,21.9,9.4,30.38,SSW,200,3.0,6.0,58,0.00,,,0.00,Wunderground v.1.15,2013-01-23 17:29:00,
2013-01-23 12:35:00,22.1,9.9,30.38,SSW,211,3.0,5.0,59,0.00,,,0.00,Wunderground v.1.15,2013-01-23 17:35:00,
2013-01-23 12:41:00,22.7,9.7,30.37,SSW,203,3.0,5.0,57,0.00,,,0.00,Wunderground v.1.15,2013-01-23 17:41:00,
2013-01-23 12:46:00,23.2,9.8,30.36,SW,214,3.0,5.0,56,0.00,,,0.00,Wunderground v.1.15,2013-01-23 17:46:00,
2013-01-23 12:52:00,23.6,9.4,30.36,South,191,3.0,3.0,54,0.00,,,0.00,Wunderground v.1.15,2013-01-23 17:52:00,
2013-01-23 12:58:00,23.9,9.6,30.35,SSW,201,2.0,3.0,54,0.00,,,0.00,Wunderground v.1.15,2013-01-23 17:58:00,
2013-01-23 13:03:00,24.2,9.5,30.35,SE,144,3.0,5.0,53,0.00,,,0.00,Wunderground v.1.15,2013-01-23 18:03:00,
2013-01-23 13:09:00,24.5,9.4,30.35,WSW,248,3.0,5.0,52,0.00,,,0.00,Wunderground v.1.15,2013-01-23 18:09:00,
2013-01-23 13:15:00,24.9,9.3,30.34,SSW,194,2.0,4.0,51,0.00,,,0.00,Wunderground v.1.15,2013-01-23 18:15:00,
2013-01-23 13:21:00,25.3,9.2,30.34,WSW,250,2.0,3.0,50,0.00,,,0.00,Wunderground v.1.15,2013-01-23 18:21:00,
2013-01-23 13:26:00,25.4,9.8,30.33,SW,220,2.0,5.0,51,0.00,,,0.00,Wunderground v.1.15,2013-01-23 18:26:00,
2013-01-23 13:32:00,25.9,9.3,30.33,SE,145,2.0,3.0,49,0.00,,,0.00,Wunderground v.1.15,2013-01-23 18:32:00,
2013-01-23 13:38:00,26.4,10.3,30.33,SSW,194,3.0,6.0,50,0.00,,,0.00,Wunderground v.1.15,2013-01-23 18:38:00,
2013-01-23 13:43:00,26.7,10.1,30.33,South,181,3.0,4.0,49,0.00,,,0.00,Wunderground v.1.15,2013-01-23 18:43:00,
2013-01-23 13:48:00,27.7,10.5,30.32,WSW,250,2.0,5.0,48,0.00,,,0.00,Wunderground v.1.15,2013-01-23 18:48:00,
2013-01-23 13:53:00,27.7,10.1,30.32,South,177,3.0,4.0,47,0.00,,,0.00,Wunderground v.1.15,2013-01-23 18:53:00,
2013-01-23 13:59:00,28.2,10.5,30.31,WSW,250,2.0,4.0,47,0.00,,,0.00,Wunderground v.1.15,2013-01-23 18:59:00,
2013-01-23 14:05:00,28.6,10.4,30.31,WSW,238,2.0,5.0,46,0.00,,,0.00,Wunderground v.1.15,2013-01-23 19:05:00,
2013-01-23 14:10:00,29.0,10.8,30.30,South,184,2.0,2.0,46,0.00,,,0.00,Wunderground v.1.15,2013-01-23 19:10:00,
2013-01-23 14:16:00,29.6,10.8,30.30,SSE,156,3.0,4.0,45,0.00,,,0.00,Wunderground v.1.15,2013-01-23 19:16:00,
2013-01-23 14:21:00,29.4,10.6,30.30,SE,139,3.0,3.0,45,0.00,,,0.00,Wunderground v.1.15,2013-01-23 19:21:00,
2013-01-23 14:27:00,29.1,10.9,30.29,WSW,245,3.0,3.0,46,0.00,,,0.00,Wunderground v.1.15,2013-01-23 19:27:00,
2013-01-23 14:33:00,29.0,11.3,30.29,SE,145,2.0,2.0,47,0.00,,,0.00,Wunderground v.1.15,2013-01-23 19:33:00,
2013-01-23 14:39:00,29.9,12.1,30.29,SSE,160,1.0,2.0,47,0.00,,,0.00,Wunderground v.1.15,2013-01-23 19:39:00,
2013-01-23 14:44:00,30.4,12.1,30.28,SW,232,2.0,4.0,46,0.00,,,0.00,Wunderground v.1.15,2013-01-23 19:44:00,
2013-01-23 14:49:00,31.5,13.6,30.28,South,178,3.0,6.0,47,0.00,,,0.00,Wunderground v.1.15,2013-01-23 19:49:00,
2013-01-23 14:54:00,31.9,12.9,30.28,WSW,245,2.0,3.0,45,0.00,,,0.00,Wunderground v.1.15,2013-01-23 19:54:00,
2013-01-23 15:00:00,31.2,11.8,30.27,South,177,2.0,2.0,44,0.00,,,0.00,Wunderground v.1.15,2013-01-23 20:00:00,
2013-01-23 15:05:00,31.4,13.5,30.27,SSE,162,2.0,4.0,47,0.00,,,0.00,Wunderground v.1.15,2013-01-23 20:05:00,
2013-01-23 15:11:00,31.5,12.6,30.26,SW,236,2.0,2.0,45,0.00,,,0.00,Wunderground v.1.15,2013-01-23 20:11:00,
2013-01-23 15:17:00,31.4,13.0,30.26,SE,146,3.0,4.0,46,0.00,,,0.00,Wunderground v.1.15,2013-01-23 20:17:00,
2013-01-23 15:23:00,30.9,13.0,30.26,ESE,120,2.0,3.0,47,0.00,,,0.00,Wunderground v.1.15,2013-01-23 20:23:00,
2013-01-23 15:28:00,30.7,13.3,30.26,SSE,152,2.0,3.0,48,0.00,,,0.00,Wunderground v.1.15,2013-01-23 20:28:00,
2013-01-23 15:34:00,30.9,13.5,30.25,SE,127,2.0,4.0,48,0.00,,,0.00,Wunderground v.1.15,2013-01-23 20:34:00,
2013-01-23 15:40:00,31.2,13.8,30.25,SE,131,2.0,2.0,48,0.00,,,0.00,Wunderground v.1.15,2013-01-23 20:40:00,
2013-01-23 15:45:00,32.0,14.0,30.24,SSE,155,2.0,3.0,47,0.00,,,0.00,Wunderground v.1.15,2013-01-23 20:45:00,
2013-01-23 15:51:00,32.4,13.9,30.24,SSE,165,3.0,4.0,46,0.00,,,0.00,Wunderground v.1.15,2013-01-23 20:51:00,
2013-01-23 15:57:00,32.5,14.0,30.24,SSE,165,3.0,4.0,46,0.00,,,0.00,Wunderground v.1.15,2013-01-23 20:57:00,
2013-01-23 16:02:00,32.3,14.3,30.24,SSE,159,2.0,2.0,47,0.00,,,0.00,Wunderground v.1.15,2013-01-23 21:02:00,
2013-01-23 16:08:00,32.3,15.3,30.24,SSE,147,1.0,3.0,49,0.00,,,0.00,Wunderground v.1.15,2013-01-23 21:08:00,
2013-01-23 16:14:00,32.5,15.0,30.24,WSW,245,1.0,4.0,48,0.00,,,0.00,Wunderground v.1.15,2013-01-23 21:14:00,
2013-01-23 16:20:00,32.7,15.1,30.23,SW,233,2.0,7.0,48,0.00,,,0.00,Wunderground v.1.15,2013-01-23 21:20:00,
2013-01-23 16:26:00,32.7,15.6,30.23,West,276,4.0,7.0,49,0.00,,,0.00,Wunderground v.1.15,2013-01-23 21:26:00,
2013-01-23 16:32:00,32.8,15.7,30.22,SSE,159,3.0,8.0,49,0.00,,,0.00,Wunderground v.1.15,2013-01-23 21:32:00,
2013-01-23 16:37:00,32.8,15.7,30.22,WSW,249,3.0,8.0,49,0.00,,,0.00,Wunderground v.1.15,2013-01-23 21:37:00,
2013-01-23 16:42:00,32.8,15.7,30.22,West,270,3.0,4.0,49,0.00,,,0.00,Wunderground v.1.15,2013-01-23 21:42:00,
2013-01-23 16:47:00,32.8,16.2,30.22,SW,226,3.0,6.0,50,0.00,,,0.00,Wunderground v.1.15,2013-01-23 21:47:00,
2013-01-23 16:52:00,32.7,16.1,30.21,West,260,4.0,7.0,50,0.00,,,0.00,Wunderground v.1.15,2013-01-23 21:52:00,
2013-01-23 16:58:00,32.7,16.1,30.21,SW,235,4.0,7.0,50,0.00,,,0.00,Wunderground v.1.15,2013-01-23 21:58:00,
2013-01-23 17:03:00,32.7,16.1,30.21,WSW,239,2.0,3.0,50,0.00,,,0.00,Wunderground v.1.15,2013-01-23 22:03:00,
2013-01-23 17:09:00,32.7,16.1,30.21,WSW,242,2.0,5.0,50,0.00,,,0.00,Wunderground v.1.15,2013-01-23 22:09:00,
2013-01-23 17:14:00,32.7,16.5,30.21,SW,232,3.0,4.0,51,0.00,,,0.00,Wunderground v.1.15,2013-01-23 22:14:00,
2013-01-23 17:20:00,32.6,16.4,30.20,SW,236,2.0,2.0,51,0.00,,,0.00,Wunderground v.1.15,2013-01-23 22:20:00,
2013-01-23 17:26:00,32.5,16.4,30.20,West,277,2.0,2.0,51,0.00,,,0.00,Wunderground v.1.15,2013-01-23 22:26:00,
2013-01-23 17:32:00,32.7,16.5,30.20,SW,215,1.0,1.0,51,0.00,,,0.00,Wunderground v.1.15,2013-01-23 22:32:00,
2013-01-23 17:37:00,32.8,16.6,30.19,WSW,250,2.0,3.0,51,0.00,,,0.00,Wunderground v.1.15,2013-01-23 22:37:00,
2013-01-23 17:43:00,32.6,16.9,30.19,WSW,240,1.0,2.0,52,0.00,,,0.00,Wunderground v.1.15,2013-01-23 22:43:00,
2013-01-23 17:49:00,32.3,17.1,30.19,SW,235,1.0,2.0,53,0.00,,,0.00,Wunderground v.1.15,2013-01-23 22:49:00,
2013-01-23 17:55:00,32.1,16.9,30.19,SW,229,1.0,2.0,53,0.00,,,0.00,Wunderground v.1.15,2013-01-23 22:55:00,
2013-01-23 18:00:00,32.1,16.4,30.18,WSW,245,1.0,1.0,52,0.00,,,0.00,Wunderground v.1.15,2013-01-23 23:00:00,
2013-01-23 18:05:00,32.1,16.9,30.18,WSW,242,1.0,2.0,53,0.00,,,0.00,Wunderground v.1.15,2013-01-23 23:05:00,
2013-01-23 18:11:00,32.0,17.2,30.18,SW,224,1.0,1.0,54,0.00,,,0.00,Wunderground v.1.15,2013-01-23 23:11:00,
2013-01-23 18:17:00,31.8,17.0,30.18,WSW,253,1.0,1.0,54,0.00,,,0.00,Wunderground v.1.15,2013-01-23 23:17:00,
2013-01-23 18:22:00,31.7,16.9,30.18,WSW,245,1.0,1.0,54,0.00,,,0.00,Wunderground v.1.15,2013-01-23 23:22:00,
2013-01-23 18:28:00,31.6,17.3,30.18,WSW,240,0.0,1.0,55,0.00,,,0.00,Wunderground v.1.15,2013-01-23 23:28:00,
2013-01-23 18:33:00,31.4,17.5,30.18,WSW,240,0.0,0.0,56,0.00,,,0.00,Wunderground v.1.15,2013-01-23 23:33:00,
2013-01-23 18:39:00,31.3,17.4,30.17,SW,235,0.0,0.0,56,0.00,,,0.00,Wunderground v.1.15,2013-01-23 23:39:00,
2013-01-23 18:45:00,31.2,17.3,30.17,WSW,237,0.0,1.0,56,0.00,,,0.00,Wunderground v.1.15,2013-01-23 23:45:00,
2013-01-23 18:50:00,31.2,17.3,30.17,WSW,254,0.0,0.0,56,0.00,,,0.00,Wunderground v.1.15,2013-01-23 23:50:00,
2013-01-23 18:56:00,31.0,17.5,30.17,SW,215,0.0,0.0,57,0.00,,,0.00,Wunderground v.1.15,2013-01-23 23:56:00,
2013-01-23 19:02:00,30.9,17.8,30.17,SSW,208,0.0,0.0,58,0.00,,,0.00,Wunderground v.1.15,2013-01-24 00:02:00,
2013-01-23 19:07:00,30.9,18.2,30.17,WSW,243,0.0,0.0,59,0.00,,,0.00,Wunderground v.1.15,2013-01-24 00:07:00,
2013-01-23 19:12:00,31.0,17.9,30.17,WSW,245,0.0,0.0,58,0.00,,,0.00,Wunderground v.1.15,2013-01-24 00:12:00,
2013-01-23 19:18:00,31.1,17.6,30.16,WSW,240,1.0,3.0,57,0.00,,,0.00,Wunderground v.1.15,2013-01-24 00:18:00,
2013-01-23 19:24:00,31.4,17.5,30.17,WSW,249,1.0,2.0,56,0.00,,,0.00,Wunderground v.1.15,2013-01-24 00:24:00,
2013-01-23 19:29:00,31.6,17.7,30.17,WSW,243,1.0,2.0,56,0.00,,,0.00,Wunderground v.1.15,2013-01-24 00:29:00,
2013-01-23 19:35:00,31.8,17.9,30.17,West,262,1.0,2.0,56,0.00,,,0.00,Wunderground v.1.15,2013-01-24 00:35:00,
2013-01-23 19:40:00,31.7,18.2,30.17,West,276,1.0,1.0,57,0.00,,,0.00,Wunderground v.1.15,2013-01-24 00:40:00,
2013-01-23 19:46:00,31.7,18.6,30.16,WSW,253,1.0,2.0,58,0.00,,,0.00,Wunderground v.1.15,2013-01-24 00:46:00,
2013-01-23 19:52:00,31.6,18.1,30.16,WSW,256,1.0,1.0,57,0.00,,,0.00,Wunderground v.1.15,2013-01-24 00:52:00,
2013-01-23 19:57:00,31.6,18.5,30.16,WSW,243,1.0,1.0,58,0.00,,,0.00,Wunderground v.1.15,2013-01-24 00:57:00,
2013-01-23 20:03:00,31.4,18.3,30.15,West,266,0.0,1.0,58,0.00,,,0.00,Wunderground v.1.15,2013-01-24 01:03:00,
2013-01-23 20:09:00,31.6,18.1,30.15,WSW,239,0.0,1.0,57,0.00,,,0.00,Wunderground v.1.15,2013-01-24 01:09:00,
2013-01-23 20:14:00,31.6,18.9,30.14,SW,231,1.0,1.0,59,0.00,,,0.00,Wunderground v.1.15,2013-01-24 01:14:00,
2013-01-23 20:20:00,31.4,18.7,30.14,WSW,245,1.0,1.0,59,0.00,,,0.00,Wunderground v.1.15,2013-01-24 01:20:00,
2013-01-23 20:26:00,31.4,18.7,30.14,WSW,245,0.0,1.0,59,0.00,,,0.00,Wunderground v.1.15,2013-01-24 01:26:00,
2013-01-23 20:31:00,31.5,18.8,30.14,WSW,249,0.0,1.0,59,0.00,,,0.00,Wunderground v.1.15,2013-01-24 01:31:00,
2013-01-23 20:37:00,31.6,18.9,30.15,West,278,1.0,1.0,59,0.00,,,0.00,Wunderground v.1.15,2013-01-24 01:37:00,
2013-01-23 20:43:00,31.7,18.6,30.15,West,276,1.0,2.0,58,0.00,,,0.00,Wunderground v.1.15,2013-01-24 01:43:00,
2013-01-23 20:48:00,31.7,19.0,30.15,West,276,1.0,2.0,59,0.00,,,0.00,Wunderground v.1.15,2013-01-24 01:48:00,
2013-01-23 20:54:00,31.7,19.4,30.14,WSW,246,0.0,1.0,60,0.00,,,0.00,Wunderground v.1.15,2013-01-24 01:54:00,
2013-01-23 21:00:00,31.6,19.3,30.14,WSW,252,0.0,1.0,60,0.00,,,0.00,Wunderground v.1.15,2013-01-24 02:00:00,
2013-01-23 21:06:00,31.6,18.9,30.14,West,269,1.0,3.0,59,0.00,,,0.00,Wunderground v.1.15,2013-01-24 02:06:00,
2013-01-23 21:11:00,31.6,19.3,30.14,WSW,249,1.0,1.0,60,0.00,,,0.00,Wunderground v.1.15,2013-01-24 02:11:00,
2013-01-23 21:17:00,31.4,19.5,30.14,WNW,291,1.0,2.0,61,0.00,,,0.00,Wunderground v.1.15,2013-01-24 02:17:00,
2013-01-23 21:23:00,31.1,19.2,30.15,WNW,283,1.0,1.0,61,0.00,,,0.00,Wunderground v.1.15,2013-01-24 02:23:00,
2013-01-23 21:29:00,30.8,19.3,30.15,WSW,251,1.0,1.0,62,0.00,,,0.00,Wunderground v.1.15,2013-01-24 02:29:00,
2013-01-23 21:34:00,30.5,19.4,30.15,WNW,283,1.0,2.0,63,0.00,,,0.00,Wunderground v.1.15,2013-01-24 02:34:00,
2013-01-23 21:40:00,30.3,19.2,30.15,West,264,1.0,1.0,63,0.00,,,0.00,Wunderground v.1.15,2013-01-24 02:40:00,
2013-01-23 21:46:00,30.1,19.4,30.14,West,278,1.0,2.0,64,0.00,,,0.00,Wunderground v.1.15,2013-01-24 02:46:00,
2013-01-23 21:52:00,30.0,19.3,30.15,West,260,1.0,1.0,64,0.00,,,0.00,Wunderground v.1.15,2013-01-24 02:52:00,
2013-01-23 21:58:00,29.8,19.1,30.15,West,277,1.0,2.0,64,0.00,,,0.00,Wunderground v.1.15,2013-01-24 02:58:00,
2013-01-23 22:04:00,29.8,19.5,30.15,West,278,1.0,3.0,65,0.00,,,0.00,Wunderground v.1.15,2013-01-24 03:04:00,
2013-01-23 22:10:00,29.6,19.3,30.15,West,273,2.0,2.0,65,0.00,,,0.00,Wunderground v.1.15,2013-01-24 03:10:00,
2013-01-23 22:16:00,29.4,19.4,30.15,West,278,2.0,2.0,66,0.00,,,0.00,Wunderground v.1.15,2013-01-24 03:16:00,
2013-01-23 22:22:00,29.1,19.5,30.16,WNW,287,1.0,2.0,67,0.00,,,0.00,Wunderground v.1.15,2013-01-24 03:22:00,
2013-01-23 22:28:00,28.8,19.2,30.16,WNW,283,1.0,2.0,67,0.00,,,0.00,Wunderground v.1.15,2013-01-24 03:28:00,
2013-01-23 22:33:00,28.6,19.4,30.16,West,276,1.0,1.0,68,0.00,,,0.00,Wunderground v.1.15,2013-01-24 03:33:00,
2013-01-23 22:39:00,28.4,19.2,30.16,WNW,290,0.0,1.0,68,0.00,,,0.00,Wunderground v.1.15,2013-01-24 03:39:00,
2013-01-23 22:45:00,28.2,19.3,30.16,WNW,283,0.0,0.0,69,0.00,,,0.00,Wunderground v.1.15,2013-01-24 03:45:00,
2013-01-23 22:51:00,28.0,19.1,30.16,WNW,286,0.0,0.0,69,0.00,,,0.00,Wunderground v.1.15,2013-01-24 03:51:00,
2013-01-23 22:56:00,27.6,19.1,30.15,WNW,287,0.0,0.0,70,0.00,,,0.00,Wunderground v.1.15,2013-01-24 03:56:00,
2013-01-23 23:02:00,27.2,19.0,30.15,WNW,287,0.0,0.0,71,0.00,,,0.00,Wunderground v.1.15,2013-01-24 04:02:00,
2013-01-23 23:08:00,27.0,18.8,30.16,WNW,291,0.0,1.0,71,0.00,,,0.00,Wunderground v.1.15,2013-01-24 04:08:00,
2013-01-23 23:14:00,26.9,18.7,30.16,West,278,0.0,1.0,71,0.00,,,0.00,Wunderground v.1.15,2013-01-24 04:14:00,
2013-01-23 23:20:00,26.8,18.7,30.15,NW,305,0.0,0.0,71,0.00,,,0.00,Wunderground v.1.15,2013-01-24 04:20:00,
2013-01-23 23:26:00,26.6,18.5,30.16,NW,304,0.0,0.0,71,0.00,,,0.00,Wunderground v.1.15,2013-01-24 04:26:00,
2013-01-23 23:31:00,26.5,18.4,30.15,West,271,0.0,0.0,71,0.00,,,0.00,Wunderground v.1.15,2013-01-24 04:31:00,
2013-01-23 23:36:00,26.1,18.3,30.16,West,271,0.0,0.0,72,0.00,,,0.00,Wunderground v.1.15,2013-01-24 04:36:00,
2013-01-23 23:43:00,25.0,17.9,30.16,West,271,0.0,0.0,74,0.00,,,0.00,Wunderground v.1.15,2013-01-24 04:43:00,
2013-01-23 23:49:00,24.2,17.7,30.16,West,271,0.0,0.0,76,0.00,,,0.00,Wunderground v.1.15,2013-01-24 04:49:00,
2013-01-23 23:55:00,23.9,17.7,30.16,West,271,0.0,0.0,77,0.00,,,0.00,Wunderground v.1.15,2013-01-24 04:55:00,